| time (UTC) | temp C | wind direction | speed KPH | gust KPH | rain 1hr cm | rain 24hr cm | rain mn cm | humidity % | barometer mb |
| 20260504150656 | 8 | 76 | 4.8 | 6.4 | 0.00 | 2.74 | 0.00 | 87 | 1012.0 |
| 20260504140657 | 10 | 340 | 0.0 | 6.4 | 0.00 | 4.60 | 2.74 | 79 | 1011.1 |
| 20260504130655 | 12 | 113 | 6.4 | 17.7 | 0.00 | 4.60 | 2.74 | 67 | 1010.2 |
| 20260504110656 | 12 | 225 | 11.3 | 22.5 | 0.00 | 4.60 | 2.74 | 65 | 1008.6 |
| 20260504080656 | 13 | 238 | 17.7 | 43.5 | 0.00 | 4.60 | 2.74 | 61 | 1006.3 |
| 20260504050655 | 20 | 242 | 17.7 | 41.8 | 0.00 | 4.60 | 2.74 | 47 | 1002.7 |
| 20260504044656 | 21 | 274 | 17.7 | 33.8 | 0.00 | 4.60 | 2.74 | 40 | 1002.6 |
| 20260504044009 | 21 | 222 | 12.9 | 22.5 | 0.00 | 4.60 | 2.74 | 39 | 1002.5 |
| 20260504042656 | 21 | 212 | 17.7 | 33.8 | 0.00 | 4.60 | 2.74 | 41 | 1002.6 |
| 20260504040656 | 21 | 177 | 9.7 | 30.6 | 0.00 | 4.60 | 2.74 | 41 | 1002.9 |
| 20260504034656 | 21 | 221 | 19.3 | 30.6 | 0.00 | 4.60 | 2.74 | 44 | 1002.9 |
| 20260504032657 | 21 | 172 | 14.5 | 30.6 | 0.00 | 4.60 | 2.74 | 44 | 1002.6 |
| 20260504030657 | 20 | 224 | 9.7 | 29.0 | 0.00 | 4.60 | 2.74 | 52 | 1003.0 |
| 20260504025008 | 20 | 243 | 4.8 | 33.8 | 0.00 | 4.60 | 2.74 | 52 | 1002.9 |
| 20260504024656 | 20 | 217 | 17.7 | 33.8 | 0.00 | 4.60 | 2.74 | 52 | 1002.7 |
| 20260504023009 | 20 | 269 | 19.3 | 29.0 | 0.00 | 4.60 | 2.74 | 56 | 1003.1 |
| 20260504022655 | 20 | 233 | 16.1 | 27.4 | 0.00 | 4.60 | 2.74 | 56 | 1002.7 |
| 20260504020656 | 20 | 339 | 8.0 | 19.3 | 0.00 | 4.60 | 2.74 | 60 | 1003.0 |
| 20260504014657 | 18 | 221 | 9.7 | 19.3 | 0.00 | 4.60 | 2.74 | 60 | 1003.1 |
| 20260504013009 | 20 | 297 | 6.4 | 12.9 | 0.00 | 4.60 | 2.74 | 62 | 1003.3 |
| 20260504012656 | 20 | 263 | 8.0 | 12.9 | 0.00 | 4.60 | 2.74 | 65 | 1003.5 |
| 20260504012009 | 20 | 291 | 1.6 | 8.0 | 0.00 | 4.60 | 2.74 | 63 | 1003.5 |
| 20260504010656 | 20 | 271 | 3.2 | 9.7 | 0.00 | 4.60 | 2.74 | 66 | 1003.3 |
| 20260504004655 | 18 | 239 | 8.0 | 22.5 | 0.00 | 4.60 | 2.74 | 70 | 1003.3 |
| 20260504002655 | 18 | 294 | 9.7 | 20.9 | 0.00 | 4.60 | 2.74 | 71 | 1003.2 |
| 20260504002008 | 18 | 276 | 8.0 | 12.9 | 0.00 | 4.60 | 2.74 | 77 | 1003.2 |
| 20260504000657 | 17 | 278 | 8.0 | 11.3 | 0.00 | 4.60 | 2.74 | 83 | 1003.3 |
| 20260503234655 | 17 | 267 | 9.7 | 11.3 | 0.00 | 4.60 | 2.74 | 87 | 1003.3 |
| 20260503232656 | 17 | 301 | 8.0 | 17.7 | 0.00 | 4.60 | 2.74 | 87 | 1003.6 |
| 20260503230655 | 17 | 267 | 11.3 | 14.5 | 0.00 | 4.60 | 2.74 | 88 | 1003.2 |
| 20260503230009 | 17 | 294 | 9.7 | 16.1 | 0.00 | 4.60 | 2.74 | 91 | 1003.0 |
| 20260503224656 | 17 | 295 | 11.3 | 14.5 | 0.00 | 4.60 | 2.74 | 94 | 1002.4 |
| 20260503223008 | 17 | 257 | 11.3 | 24.1 | 0.00 | 4.60 | 2.74 | 97 | 1002.1 |
| 20260503222657 | 17 | 252 | 11.3 | 24.1 | 0.00 | 4.60 | 2.74 | 97 | 1002.0 |
| 20260503220655 | 17 | 203 | 14.5 | 24.1 | 0.00 | 4.60 | 2.74 | 100 | 1001.6 |
| 20260503220009 | 17 | 236 | 16.1 | 35.4 | 0.00 | 4.60 | 2.74 | 100 | 1001.3 |
| 20260503214655 | 17 | 301 | 11.3 | 27.4 | 0.00 | 4.60 | 2.74 | 100 | 1000.9 |
| 20260503212656 | 17 | 226 | 6.4 | 14.5 | 0.00 | 4.60 | 2.74 | 100 | 1000.4 |
| 20260503210656 | 17 | 215 | 0.0 | 6.4 | 0.00 | 4.60 | 2.72 | 100 | 1000.0 |
| 20260503204655 | 17 | 231 | 4.8 | 16.1 | 0.00 | 4.60 | 2.67 | 100 | 1000.1 |
| 20260503202655 | 17 | 233 | 6.4 | 11.3 | 0.00 | 4.60 | 2.67 | 100 | 1000.0 |
| 20260503200657 | 17 | 218 | 3.2 | 9.7 | 0.00 | 4.60 | 2.64 | 100 | 999.7 |
| 20260503194657 | 17 | 233 | 6.4 | 12.9 | 0.00 | 4.60 | 2.51 | 100 | 999.2 |
| 20260503194008 | 17 | 294 | 8.0 | 14.5 | 0.00 | 4.60 | 2.44 | 100 | 999.2 |
| 20260503192656 | 16 | 322 | 6.4 | 20.9 | 0.00 | 4.60 | 2.34 | 100 | 999.0 |
| 20260503191008 | 16 | 229 | 6.4 | 17.7 | 0.00 | 4.60 | 2.24 | 100 | 999.1 |
| 20260503190655 | 16 | 328 | 12.9 | 17.7 | 0.00 | 4.60 | 2.21 | 100 | 999.1 |
| 20260503190008 | 16 | 259 | 11.3 | 22.5 | 0.00 | 4.60 | 2.11 | 100 | 999.1 |
| 20260503185010 | 16 | 298 | 11.3 | 17.7 | 0.00 | 4.60 | 2.08 | 100 | 998.9 |
| 20260503184656 | 16 | 285 | 11.3 | 16.1 | 0.00 | 4.60 | 2.08 | 100 | 999.0 |
| 20260503182657 | 16 | 293 | 9.7 | 14.5 | 0.00 | 4.60 | 1.91 | 100 | 999.0 |
| 20260503180657 | 16 | 316 | 12.9 | 17.7 | 0.00 | 4.60 | 1.55 | 100 | 999.4 |
| 20260503174656 | 15 | 316 | 4.8 | 17.7 | 0.00 | 4.60 | 1.35 | 100 | 999.8 |
| 20260503174009 | 15 | 242 | 8.0 | 17.7 | 0.00 | 4.60 | 1.32 | 100 | 1000.3 |
| 20260503172656 | 15 | 257 | 11.3 | 17.7 | 0.00 | 4.60 | 1.24 | 100 | 1000.4 |
| 20260503170655 | 15 | 301 | 9.7 | 14.5 | 0.00 | 4.60 | 1.02 | 100 | 1001.3 |